Regional Weather Roundup
Issued by NWS

Home | Current Version | Previous Version | Text Only | Print | Product List | Glossary On
Versions: 1 2 3 4 5 6 7 8 9 10 11 12 13 14 15 16 17 18 19 20 21 22 23 24 25 26 27 28 29 30 31 32 33 34 35 36 37 38 39 40 41 42 43 44 45 46 47 48 49 50
000
ASUS44 KLIX 090913
RWRLA
LOUISIANA WEATHER ROUNDUP
NATIONAL WEATHER SERVICE NEW ORLEANS LA
300 AM CST FRI DEC 09 2016

NOTE: "FAIR" INDICATES FEW OR NO CLOUDS BELOW 12,000 FEET WITH NO
      SIGNIFICANT WEATHER AND/OR OBSTRUCTIONS TO VISIBILITY.
      SKY/WX - SKY CONDITION AND SIGNIFICANT WEATHER.
      TMP - AIR TEMPERATURE.    DP   - DEWPOINT TEMPERATURE.
      RH  - RELATIVE HUMIDITY.  PRES - PRESSURE.
      HX  - HEAT INDEX.         WCI  - WIND CHILL INDEX.

*  THESE STATIONS ARE NOT NWS OR FAA STATIONS AND ARE NOT UNDER
   NWS QUALITY CONTROL.

LAZ040-048-061>063-065-066-069-091000-
SOUTHEAST LOUISIANA

CITY           SKY/WX    TMP DP  RH WIND       PRES   REMARKS
N.O. AUDUBON   NOT AVBL
N.O. INTL ARPT CLOUDY    43  33  68 N14G20    30.48R
N.O. LAKEFRONT CLOUDY    44  33  65 N23G29    30.48S
N.O. DOWNTOWN* LGT RAIN  44  31  60 N9G17     30.48R
RESERVE*       FAIR      43  32  65 N10G16    30.49S
SLIDELL        CLOUDY    41  31  67 N10       30.48R
BATON ROUGE    CLOUDY    39  23  52 N13G20    30.51S WCI  31
BOOTHVILLE     MOCLDY    45  35  68 NE17G26   30.42F
BELLE CHASSE   CLOUDY    43  29  57 N14G25    30.46R
BOGALUSA*      CLOUDY    39  29  66 N13       30.52S WCI  32
GALLIANO*      CLOUDY    45  28  51 N17G23    30.44R
NEW ROADS*     CLOUDY    37  24  59 N13       30.54S WCI  28
GONZALES*      PTSUNNY   40  27  60 N9        30.50R WCI  34
HAMMOND*       CLOUDY    37  27  65 N13G20    30.51R WCI  29
HOUMA*         CLOUDY    43  32  66 N14G21    30.46R
PORT FOURCHON* PTSUNNY   46  34  61 N24G31    30.43R

$$

LAZ041-044-053-054-091000-
SOUTHWEST LOUISIANA

CITY           SKY/WX    TMP DP  RH WIND       PRES   REMARKS
LAKE CHARLES   MOCLDY    40  27  59 N17G23    30.54R WCI  31
LAFAYETTE      CLOUDY    40  27  59 N17       30.51R WCI  31
PATTERSON      CLOUDY   N/A N/A N/A N12G22    30.48S
SALT POINT     NOT AVBL
NEW IBERIA     CLOUDY    41  24  51 N14       30.51R
CHENAULT AIRPK CLOUDY    39  27  62 N13G20    30.55R WCI  31

$$

LAZ027-028-091000-
CENTRAL LOUISIANA

CITY           SKY/WX    TMP DP  RH WIND       PRES   REMARKS
FORT POLK      CLOUDY    37  27  66 NE13      30.56R WCI  29
ALEXANDRIA INT CLEAR     35  23  61 N8        30.57S WCI  29
ALEXANDRIA     PTCLDY    34  23  64 VRB5      30.57S WCI  30

$$

LAZ001-002-091000-
NORTHWEST LOUISIANA

CITY           SKY/WX    TMP DP  RH WIND       PRES   REMARKS
SHREVEPORT     CLEAR     32  21  64 N10       30.63R WCI  24
BARKSDALE AFB  CLEAR     29  18  63 N6        30.64R WCI  23
DTN SHREVEPORT CLEAR     32  19  58 N6        30.64R WCI  26

$$

LAZ014-016-091000-
NORTHEAST LOUISIANA

CITY           SKY/WX    TMP DP  RH WIND       PRES   REMARKS
MONROE         CLEAR     30  22  72 N7        30.64R WCI  23
TALLULAH       CLEAR     30  21  69 N7        30.61S WCI  23

$$




USA.gov is the U.S. government's official web portal to all federal, state and local government web resources and services.